Rensselaer, IN

7:36 PM CST on February 09, 2016 (GMT -0600)
Jasper County

Weather History for KRZL - July, 2013

Change the Weather History Date:

Monday, July 29, 2013

  Actual Average (KVPZ) Record (KVPZ)
Temperature  
Mean Temperature 62 °F 72 °F  
Max Temperature 77 °F 82 °F 96 °F (1998)
Min Temperature 48 °F 62 °F 51 °F (2003)
Degree Days  
Heating Degree Days 2 0  
Month to date heating degree days 0  
Since 1 June heating degree days 41  
Since 1 July heating degree days 0  
Cooling Degree Days 0 7  
Month to date cooling degree days 226  
Year to date cooling degree days 437  
Since 1 June cooling degree days 390  
Growing Degree Days 12 (Base 50)    
Moisture  
Dew Point 52 °F    
Average Humidity 70    
Maximum Humidity 94    
Minimum Humidity 41    
Precipitation  
Precipitation 0.00 in 0.13 in 1.86 in (2011)
Month to date precipitation 4.06  
Year to date precipitation 20.95  
Sea Level Pressure  
Sea Level Pressure 30.13 in    
Wind  
Wind Speed 5 mph (WSW)    
Max Wind Speed 10 mph    
Max Gust Speed 16 mph    
Visibility 10 miles    
Events      
T = Trace of Precipitation, MM = Missing Value Source: NWS Daily Summary

Daily Weather History Graph

Daily Weather History Graph

Search for Another Location

Airport or City:

Trip Planner

Search our weather history database for the weather conditions in past years. The results will help you decide how hot, cold, wet, or windy it might be!

Date:

Astronomy

Jul. 29, 2013 Rise Set
Actual Time 5:42 AM CDT 8:07 PM CDT
Civil Twilight 5:11 AM CDT 8:38 PM CDT
Nautical Twilight 4:32 AM CDT 9:17 PM CDT
Astronomical Twilight 3:49 AM CDT 9:59 PM CDT
Moon No Moon Rise 1:27 PM CDT (7/29)
Length of Visible Light 15h 27m
Length of Day
14h 25m
Waning Gibbous, 50% of the Moon is Illuminated
Jul 29
Waning Gibbous
Jul 29
Last Quarter
Aug 6
New
Aug 14
First Quarter
Aug 20
Full

Hourly Weather History & Observations

Time (CDT) Temp. Dew Point Humidity Pressure Visibility Wind Dir Wind Speed Gust Speed Precip Events Conditions
12:15 AM 51.8 °F 50.0 °F 94% 30.06 in 10.0 mi SW 3.5 mph - N/A   Clear
12:35 AM 51.8 °F 50.0 °F 94% 30.06 in 10.0 mi WSW 4.6 mph - N/A   Clear
12:55 AM 51.8 °F 50.0 °F 94% 30.06 in 10.0 mi SW 3.5 mph - N/A   Clear
1:15 AM 51.8 °F 50.0 °F 94% 30.06 in 10.0 mi SW 3.5 mph - N/A   Clear
1:35 AM 50.0 °F 46.4 °F 87% 30.06 in 10.0 mi SW 3.5 mph - N/A   Clear
1:55 AM 50.0 °F 48.2 °F 94% 30.06 in 10.0 mi SW 4.6 mph - N/A   Clear
2:15 AM 50.0 °F 48.2 °F 94% 30.06 in 10.0 mi SW 4.6 mph - N/A   Clear
2:55 AM 50.0 °F 48.2 °F 94% 30.07 in 10.0 mi WSW 5.8 mph - N/A   Clear
3:15 AM 50.0 °F 46.4 °F 87% 30.07 in 10.0 mi SW 5.8 mph - N/A   Clear
3:35 AM 50.0 °F 48.2 °F 94% 30.07 in 10.0 mi WSW 4.6 mph - N/A   Clear
3:55 AM 48.2 °F 46.4 °F 93% 30.07 in 10.0 mi SW 4.6 mph - N/A   Clear
4:15 AM 48.2 °F 46.4 °F 93% 30.07 in 10.0 mi SW 6.9 mph - N/A   Clear
4:35 AM 50.0 °F 48.2 °F 94% 30.08 in 10.0 mi SW 6.9 mph - N/A   Clear
4:55 AM 50.0 °F 48.2 °F 94% 30.09 in 10.0 mi SW 6.9 mph - N/A   Clear
5:15 AM 50.0 °F 46.4 °F 87% 30.09 in 10.0 mi SW 5.8 mph - N/A   Clear
5:35 AM 50.0 °F 46.4 °F 87% 30.10 in 10.0 mi SW 4.6 mph - N/A   Clear
5:55 AM 48.2 °F 46.4 °F 93% 30.10 in 10.0 mi WSW 5.8 mph - N/A   Clear
6:15 AM 50.0 °F 48.2 °F 94% 30.11 in 10.0 mi WSW 5.8 mph - N/A   Clear
6:35 AM 51.8 °F 50.0 °F 94% 30.11 in 10.0 mi WSW 4.6 mph - N/A   Clear
6:55 AM 53.6 °F 51.8 °F 94% 30.11 in 10.0 mi WSW 4.6 mph - N/A   Clear
7:15 AM 53.6 °F 51.8 °F 94% 30.12 in 10.0 mi SW 5.8 mph - N/A   Clear
7:35 AM 55.4 °F 51.8 °F 88% 30.12 in 10.0 mi WSW 5.8 mph - N/A   Clear
7:55 AM 57.2 °F 53.6 °F 88% 30.13 in 10.0 mi WSW 5.8 mph - N/A   Clear
8:15 AM 59.0 °F 53.6 °F 82% 30.13 in 10.0 mi West 4.6 mph - N/A   Clear
8:35 AM 60.8 °F 53.6 °F 77% 30.14 in 10.0 mi West 6.9 mph - N/A   Clear
8:55 AM 62.6 °F 55.4 °F 77% 30.14 in 10.0 mi WSW 5.8 mph - N/A   Clear
9:15 AM 64.4 °F 55.4 °F 73% 30.14 in 10.0 mi West 8.1 mph - N/A   Clear
9:35 AM 68.0 °F 53.6 °F 60% 30.15 in 10.0 mi West 9.2 mph - N/A   Clear
9:55 AM 68.0 °F 51.8 °F 56% 30.15 in 10.0 mi West 9.2 mph - N/A   Clear
10:15 AM 68.0 °F 53.6 °F 60% 30.15 in 10.0 mi West 9.2 mph - N/A   Clear
10:35 AM 69.8 °F 51.8 °F 53% 30.15 in 10.0 mi West 6.9 mph - N/A   Clear
10:55 AM 69.8 °F 50.0 °F 49% 30.15 in 10.0 mi West 10.4 mph 16.1 mph N/A   Clear
11:15 AM 71.6 °F 51.8 °F 50% 30.15 in 10.0 mi NW 9.2 mph - N/A   Clear
11:35 AM 71.6 °F 50.0 °F 46% 30.15 in 10.0 mi West 6.9 mph - N/A   Scattered Clouds
11:55 AM 71.6 °F 50.0 °F 46% 30.15 in 10.0 mi West 10.4 mph - N/A   Clear
12:15 PM 71.6 °F 50.0 °F 46% 30.15 in 10.0 mi WNW 8.1 mph - N/A   Clear
12:35 PM 73.4 °F 50.0 °F 44% 30.15 in 10.0 mi WSW 6.9 mph - N/A   Scattered Clouds
12:55 PM 73.4 °F 51.8 °F 47% 30.15 in 10.0 mi West 10.4 mph - N/A   Scattered Clouds
1:15 PM 73.4 °F 50.0 °F 44% 30.15 in 10.0 mi WNW 4.6 mph - N/A   Mostly Cloudy
1:35 PM 77.0 °F 51.8 °F 41% 30.14 in 10.0 mi WNW 8.1 mph - N/A   Mostly Cloudy
1:55 PM 73.4 °F 51.8 °F 47% 30.14 in 10.0 mi West 10.4 mph - N/A   Scattered Clouds
2:15 PM 73.4 °F 50.0 °F 44% 30.14 in 10.0 mi WSW 8.1 mph - N/A   Mostly Cloudy
2:35 PM 73.4 °F 51.8 °F 47% 30.14 in 10.0 mi WSW 4.6 mph - N/A   Overcast
2:55 PM 75.2 °F 50.0 °F 41% 30.14 in 10.0 mi WSW 4.6 mph - N/A   Scattered Clouds
3:15 PM 73.4 °F 50.0 °F 44% 30.13 in 10.0 mi Calm Calm - N/A   Scattered Clouds
3:35 PM 75.2 °F 50.0 °F 41% 30.14 in 10.0 mi WNW 5.8 mph - N/A   Scattered Clouds
3:55 PM 77.0 °F 51.8 °F 41% 30.15 in 10.0 mi West 5.8 mph - N/A   Scattered Clouds
4:15 PM 77.0 °F 51.8 °F 41% 30.15 in 10.0 mi West 8.1 mph - N/A   Overcast
4:35 PM 75.2 °F 51.8 °F 44% 30.15 in 10.0 mi SW 4.6 mph - N/A   Overcast
4:55 PM 77.0 °F 51.8 °F 41% 30.15 in 10.0 mi West 8.1 mph - N/A   Overcast
5:15 PM 73.4 °F 51.8 °F 47% 30.15 in 10.0 mi West 3.5 mph - N/A   Overcast
5:35 PM 73.4 °F 51.8 °F 47% 30.16 in 10.0 mi WSW 4.6 mph - N/A   Overcast
5:55 PM 73.4 °F 51.8 °F 47% 30.15 in 10.0 mi WSW 4.6 mph - N/A   Overcast
6:15 PM 75.2 °F 51.8 °F 44% 30.15 in 10.0 mi Calm Calm - N/A   Mostly Cloudy
6:35 PM 75.2 °F 51.8 °F 44% 30.15 in 10.0 mi WSW 5.8 mph - N/A   Mostly Cloudy
6:55 PM 73.4 °F 51.8 °F 47% 30.16 in 10.0 mi WSW 4.6 mph - N/A   Mostly Cloudy
7:15 PM 69.8 °F 57.2 °F 64% 30.16 in 10.0 mi SW 3.5 mph - N/A   Scattered Clouds
7:35 PM 69.8 °F 55.4 °F 60% 30.15 in 10.0 mi Calm Calm - N/A   Clear
7:55 PM 68.0 °F 59.0 °F 73% 30.16 in 10.0 mi Calm Calm - N/A   Mostly Cloudy
8:15 PM 68.0 °F 57.2 °F 68% 30.16 in 10.0 mi Calm Calm - N/A   Overcast
8:35 PM 68.0 °F 57.2 °F 68% 30.16 in 10.0 mi Calm Calm - N/A   Mostly Cloudy
8:55 PM 64.4 °F 60.8 °F 88% 30.17 in 10.0 mi Calm Calm - N/A   Scattered Clouds
9:15 PM 64.4 °F 59.0 °F 83% 30.17 in 10.0 mi Calm Calm - N/A   Clear
9:35 PM 62.6 °F 59.0 °F 88% 30.18 in 10.0 mi NNE 8.1 mph - N/A   Clear
9:55 PM 62.6 °F 59.0 °F 88% 30.19 in 10.0 mi NE 5.8 mph - N/A   Clear
10:15 PM 62.6 °F 57.2 °F 82% 30.19 in 10.0 mi NE 4.6 mph - N/A   Clear
10:35 PM 60.8 °F 57.2 °F 88% 30.19 in 10.0 mi NE 4.6 mph - N/A   Clear
10:55 PM 60.8 °F 57.2 °F 88% 30.19 in 10.0 mi NE 3.5 mph - N/A   Clear
11:15 PM 59.0 °F 55.4 °F 88% 30.19 in 10.0 mi NE 3.5 mph - N/A   Clear
11:35 PM 59.0 °F 55.4 °F 88% 30.19 in 10.0 mi ENE 4.6 mph - N/A   Clear
11:55 PM 59.0 °F 55.4 °F 88% 30.19 in 10.0 mi NE 4.6 mph - N/A   Clear